Simultaneous Nadir Overpasses (SNOs) Predictions

Prediction of SNOs between FY3D and AQUA Satellite Orbit:

Table of predicted SNOs for the next 14.0 days since TLE Epoch: 10/17/2020
Index Date (FY3D) Time (FY3D) Lat,Lon (FY3D) SZA (FY3D ) Date (AQUA) Time (AQUA) Lat,Lon (AQUA) SZA (AQUA ) Distance(km) Time Diff (sec)
1 10/19/2020 18:43:37 53.13, 113.92 127.33 10/19/2020 18:43:48 53.13, 113.94 127.30 1.53 11
2 10/19/2020 19:31:44 -62.18, -73.01 60.52 10/19/2020 19:30:42 -62.17, -73.04 60.41 1.73 62
3 10/22/2020 11:00:11 52.45,-130.50 128.67 10/22/2020 11:00:27 52.45,-130.49 128.64 0.49 16
4 10/22/2020 11:48:36 -60.52, 41.63 58.21 10/22/2020 11:47:38 -60.53, 41.66 58.13 1.71 58
5 10/25/2020 03:16:44 51.83, -14.88 129.95 10/25/2020 03:17:05 51.82, -14.90 129.91 0.87 21
6 10/25/2020 04:05:04 -60.20, 157.31 57.11 10/25/2020 04:04:11 -60.20, 157.32 57.03 0.47 53
7 10/27/2020 19:33:43 49.71, 100.05 132.39 10/27/2020 19:34:08 49.71, 100.07 132.32 1.21 25
8 10/27/2020 20:21:30 -59.93, -86.96 56.07 10/27/2020 20:20:42 -59.92, -86.98 55.98 1.08 48
9 10/30/2020 11:50:11 49.31,-144.20 133.41 10/30/2020 11:50:41 49.31,-144.21 133.36 0.80 30
